Regional Weather Roundup
Issued by NWS

Home | Current Version | Previous Version | Text Only | Print | Product List | Glossary Off
Versions: 1 2 3 4 5 6 7 8 9 10 11 12 13 14 15 16 17 18 19 20 21 22 23 24 25 26 27 28 29 30 31 32 33 34 35 36 37 38 39 40 41 42 43 44 45 46 47 48 49 50

000
ASUS43 KOAX 070002
RWRNE

WEATHER ROUNDUP FOR NEBRASKA
NATIONAL WEATHER SERVICE OMAHA NE
700 PM CDT MON JUL 06 2015

NOTES: SATELLITE DATA IS BEING USED TO AUGMENT CLOUD COVER ABOVE
       12000 FEET.
       "FAIR" INDICATES FEW OR NO CLOUDS BELOW 12,000 FEET WITH NO
       SIGNIFICANT WEATHER AND/OR OBSTRUCTIONS TO VISIBILITY.

  * THESE STATIONS DO NOT REPORT WEATHER SUCH AS RAIN...SNOW OR FOG.

NEZ001>004-019>022-054>056-070100-
NEBRASKA PANHANDLE

CITY           SKY/WX    TMP DP  RH WIND       PRES   REMARKS
SCOTTSBLUFF    CLOUDY    68  55  63 NE6       30.21F HAZE
6HR MIN TEMP:  65; 6HR MAX TEMP:  70;

ALLIANCE       CLOUDY    67  54  63 N7        30.20F HAZE
6HR MIN TEMP:  67; 6HR MAX TEMP:  71;

CHADRON        SUNNY     72  52  49 N5        30.19F
6HR MIN TEMP:  67; 6HR MAX TEMP:  73;

KIMBALL          N/A    N/A N/A N/A MISG        N/A
SIDNEY         CLOUDY    68  52  56 NE13      30.22F HAZE
6HR MIN TEMP:  67; 6HR MAX TEMP:  71;

$$

NEZ057>060-069>072-079>082-070100-
SOUTHWEST NEBRASKA

CITY           SKY/WX    TMP DP  RH WIND       PRES   REMARKS
NORTH PLATTE   MOSUNNY   73  51  46 N14G24    30.11S
6HR MIN TEMP:  70; 6HR MAX TEMP:  77;

IMPERIAL       PTSUNNY   73  51  46 N15       30.14S
6HR MIN TEMP:  69; 6HR MAX TEMP:  76;

LEXINGTON      MOSUNNY   75  54  47 N13       30.07S HAZE
MCCOOK         SUNNY     76  53  44 NE21      30.07S HAZE
6HR MIN TEMP:  70; 6HR MAX TEMP:  79;

$$

NEZ005>010-023>029-035>040-094-070100-
NORTH CENTRAL NEBRASKA

CITY           SKY/WX    TMP DP  RH WIND       PRES   REMARKS
VALENTINE      MOSUNNY   72  53  51 N14G21    30.13F
6HR MIN TEMP:  71; 6HR MAX TEMP:  75;

AINSWORTH      MOSUNNY   73  55  53 N16       30.12S
BROKEN BOW     MOSUNNY   74  53  48 N17G26    30.09R HAZE
6HR MIN TEMP:  72; 6HR MAX TEMP:  77;

O`NEILL        SUNNY     73  55  52 N16G22    30.09R
ORD            MOSUNNY   75  52  44 N17G24    30.06R
6HR MIN TEMP:  73; 6HR MAX TEMP:  77;

$$

NEZ041-046>049-061>064-073>077-083>087-070100-
SOUTH CENTRAL NEBRASKA

CITY           SKY/WX    TMP DP  RH WIND       PRES   REMARKS
GRAND ISLAND   CLOUDY    74  56  53 N23       30.02F HAZE
6HR MIN TEMP:  73; 6HR MAX TEMP:  77;

AURORA         MOSUNNY   73  59  60 N14G21    30.01F HAZE
HASTINGS       PTSUNNY   74  58  57 N16G24    30.01S HAZE
6HR MIN TEMP:  72; 6HR MAX TEMP:  78;

KEARNEY *      PTSUNNY   73  55  53 N22       30.03F
$$

NEZ011>018-030>034-042>045-070100-
NORTHEAST NEBRASKA

CITY           SKY/WX    TMP DP  RH WIND       PRES   REMARKS
NORFOLK        CLOUDY    74  59  59 N15       30.01S HAZE
6HR MIN TEMP:  73; 6HR MAX TEMP:  77; 6HR PCP: TRACE;

ALBION           N/A     73  56  55 N13G22    30.05R HAZE
BLAIR          CLOUDY    73  63  72 N14       29.96S HAZE
FREMONT        CLOUDY    74  62  65 N12G17    29.98F HAZE
TEKAMAH        CLOUDY    75  62  64 N15G21    29.96F HAZE
6HR MIN TEMP:  75; 6HR MAX TEMP:  81; 6HR PCP:  0.02;

$$

NEZ050>053-065>068-078-088>093-070100-
SOUTHEAST NEBRASKA

CITY           SKY/WX    TMP DP  RH WIND       PRES   REMARKS
LINCOLN        CLOUDY    73  64  73 N18       29.96S HAZE
6HR MIN TEMP:  72; 6HR MAX TEMP:  75; 6HR PCP:  0.22;

OMAHA EPPLEY   CLOUDY    73  64  73 N15       29.94R
6HR MIN TEMP:  73; 6HR MAX TEMP:  77; 6HR PCP:  0.01;

BEATRICE       CLOUDY    72  66  83 N17G26    29.94S
FALLS CITY     LGT RAIN  72  70  93 N5        29.88F
6HR MIN TEMP:  71; 6HR MAX TEMP:  85; 6HR PCP:  0.21;

NEBRASKA CITY  CLOUDY    70  67  89 NE12G17   29.92F
PLATTSMOUTH    CLOUDY    73  64  74 N8G18     29.94S HAZE
$$

NEZ044-045-051>053-067-070100-
OMAHA AREA

CITY           SKY/WX    TMP DP  RH WIND       PRES   REMARKS
OMAHA EPPLEY   CLOUDY    73  64  73 N15       29.94R
6HR MIN TEMP:  73; 6HR MAX TEMP:  77; 6HR PCP:  0.01;

BLAIR          CLOUDY    73  63  72 N14       29.96S HAZE
FREMONT        CLOUDY    74  62  65 N12G17    29.98F HAZE
MILLARD        CLOUDY    74  65  72 N3        29.94F
PLATTSMOUTH    CLOUDY    73  64  74 N8G18     29.94S HAZE
WAHOO          CLOUDY    73  62  69 N17G25    29.97S HAZE
$$


USA.gov is the U.S. government's official web portal to all federal, state and local government web resources and services.